Welcome to the New NWS' Forecast!
Most changes are behind the scenes, but click here for differences you might notice.

Regional Weather Roundup (RWR)

Issued by Northern Indiana (IWX)

                            
609 
ASUS43 KIWX 201301
RWRIWX

KIWX WEATHER ROUNDUP
NATIONAL WEATHER SERVICE NORTHERN INDIANA
900 AM EDT MON AUG 20 2018

NOTE: "FAIR" INDICATES FEW OR NO CLOUDS BELOW 12,000 FEET WITH NO
SIGNIFICANT WEATHER AND/OR OBSTRUCTIONS TO VISIBILITY. 

* THESE STATIONS ARE NOT UNDER NWS QUALITY CONTROL. THEY ALSO MAY NOT 
  REPORT WEATHER SUCH AS PRECIPITATION OR FOG. 

INZ001>027-201400-
NORTHERN INDIANA
  
CITY           SKY/WX    TMP DP  RH WIND       PRES   REMARKS
GARY*          PTSUNNY   72  64  78 SE8       29.94S                  
MICHIGAN CITY* FAIR      68  61  77 CALM      29.97R                  
SOUTH BEND     FAIR      68  63  84 SE12      29.99R                  
ELKHART*       FAIR      68  63  83 E6        30.00R                  
GOSHEN         FAIR      68  65  90 SE7       30.00R                  
MONTICELLO*    FAIR      68  66  93 E7        29.94S                  
KENDALLVILLE*  FAIR      66  62  87 SE3       30.02S                  
FORT WAYNE     PTSUNNY   68  65  90 E6        30.01R                  
PERU/GRISSOM   FAIR      68  68 100 E8        29.97R                  

$$
INZ028>050-201400-
CENTRAL INDIANA
  
CITY           SKY/WX    TMP DP  RH WIND       PRES   REMARKS
LAFAYETTE      FAIR      71  67  87 E9        29.92S                  
KOKOMO*        FAIR      68  65  90 SE6       29.98R                  
MUNCIE*        FAIR      70  65  84 SE7       29.99R                  
INDIANAPOLIS   CLOUDY    73  68  84 SE12      29.93S                  

$$
MIZ043>046-050>051-056>058-064>065-071>073-077>080-201400-
SOUTHWEST LOWER MICHIGAN
  
CITY           SKY/WX    TMP DP  RH WIND       PRES   REMARKS
BATTLE CREEK   FAIR      68  62  81 SE8       30.04R                  
BENTON HARBOR  FAIR      70  64  81 E9        29.97R                  
HILLSDALE*     FAIR      64  61  88 CALM      30.04R                  
HOLLAND        FAIR      68  64  87 E9        29.99F                  
GRAND RAPIDS   CLOUDY    68  64  87 SE7       30.03R                  
KALAMAZOO      FAIR      69  63  81 VRB6      30.01F                  
STURGIS*       FAIR      68  63  82 E6        30.00F                  
THREE RIVERS*  FAIR      67  64  89 E7        30.01F                  

$$
OHZ001>008-015>018-024>025-201400-
NORTHWEST OHIO
  
CITY           SKY/WX    TMP DP  RH WIND       PRES   REMARKS
WAUSEON*       FAIR      66  64  94 E6        30.03S FOG              
DEFIANCE       FAIR      65  64  97 E6        30.03R FOG              
FINDLAY        FAIR      68  62  81 E9        30.02R                  
OTTAWA*        FAIR      63  61  94 SE3       30.05R                  
TOLEDO EXPRESS FAIR      69  63  81 E5        30.03S                  
LIMA           FAIR      67  63  87 E7        30.02S                  

$$
AND FOR LAKE MICHIGAN COASTAL AND OPEN LAKE BUOY OBSERVATIONS
  
STATION/POSITION TEMP    WIND        PRES    VSBY  WAVE
                 AIR SEA DIR/SP/G                  HT/PER
                 (F)     (DEG/KT/KT) (MB)    (MI)  (FT/S)
CALUMET HARBOR    72     110/  8/ 13 1013.0
MICHIGAN CITY     71     110/  8/ 10   N/A
BURNS HARBOR      72                 1014.2R
SAINT JOSEPH      68      80/  2/  5 1015.6
SOUTH LAKE BUOY   74 76  120/ 16/ 19 1013.7          3/ 5
4 MI NW BRIDGMAN  70 76  120/ 10/ 14 1014.6R         1/ 2
MICHIGAN CITY     71 77  130/ 10/ 12   N/A           1

$$
&&